Wind_Speed
22 22 21 20 21 21 21 22 20 18 17 17 16 15 14 12 10 9 7 5 6 6 6 5 5 5 5 4 3 3 2 2 1 1 2 2 2 2 2 2 2 2 2 1 1 2 3 3 4
22 22 21 22 22 23 24 23 20 19 18 17 16 15 13 11 10 8 7 6 6 7 6 5 5 5 4 3 3 2 2 1 2 2 2 2 2 2 2 2 2 2 2 1 1 2 3 3 3
20 21 22 24 24 24 24 23 22 20 19 18 16 15 13 11 10 9 8 7 7 6 6 5 4 4 4 3 3 2 2 2 2 2 2 2 2 2 2 2 2 2 2 2 2 2 3 3 3
19 21 22 23 23 24 23 23 22 21 20 19 18 16 14 12 11 10 9 8 7 7 5 4 3 3 2 2 2 2 2 2 2 2 2 2 2 2 2 2 2 3 3 2 2 2 3 3 3
16 20 22 22 23 23 23 24 21 20 20 19 18 17 15 14 12 11 11 10 8 7 6 4 2 2 1 1 0 1 1 2 2 2 2 2 2 2 2 2 2 3 3 3 3 3 3 3 3
14 18 19 20 21 21 22 23 21 20 20 19 18 18 16 15 13 12 11 11 10 9 7 5 3 2 1 1 1 1 1 2 2 2 2 2 2 3 2 2 2 3 3 3 3 3 3 4 3
15 18 18 18 18 19 20 21 19 20 20 19 18 17 16 15 14 13 12 11 10 9 8 6 4 2 1 1 1 2 2 2 2 2 2 3 3 3 3 2 2 2 3 3 3 3 3 3 3
15 16 16 16 16 17 18 19 18 19 20 20 19 18 16 15 14 13 12 12 10 9 8 6 4 3 2 2 1 2 2 3 3 3 3 3 3 3 3 2 2 2 2 2 3 3 4 3 3
14 13 13 14 14 15 17 17 17 19 20 20 21 19 17 15 15 14 13 12 11 10 8 7 5 3 2 2 2 2 2 3 3 3 4 3 3 3 2 2 2 2 2 2 3 3 3 3 3
12 11 11 11 13 15 15 15 17 19 21 21 20 19 18 17 15 15 14 13 13 12 10 9 6 4 3 3 3 2 3 3 3 3 4 3 3 3 2 2 2 3 3 3 3 2 3 3 2
11 8 9 10 12 13 13 14 16 19 19 19 19 19 19 18 17 16 15 15 13 12 11 10 8 6 3 3 3 2 2 2 2 3 4 4 3 2 2 3 3 3 3 2 2 2 2 2 2
8 6 6 7 9 11 12 13 16 18 18 19 19 18 19 19 18 16 16 15 14 14 11 10 8 7 5 3 2 1 1 1 1 2 3 4 3 3 3 3 3 3 3 3 2 2 2 2 2
8 5 4 5 8 11 12 13 14 16 17 18 18 17 17 17 18 17 17 16 15 15 13 10 8 7 6 5 4 2 1 1 1 1 2 3 3 3 3 3 3 4 4 3 3 3 2 2 2
8 5 4 5 7 11 12 13 14 16 17 18 18 18 17 17 17 18 17 16 16 15 14 12 9 8 7 5 4 3 2 2 2 1 2 2 3 3 3 3 3 4 4 4 3 3 2 2 2
7 6 5 5 7 10 11 13 15 15 16 17 18 18 18 18 17 17 17 17 17 16 15 13 11 10 8 5 4 3 2 1 1 1 2 3 3 3 3 3 3 4 4 4 3 3 2 2 3
8 6 5 5 6 9 11 13 15 16 15 16 17 18 18 18 18 17 17 17 17 16 15 13 12 11 10 6 4 3 2 1 0 1 2 3 4 4 4 3 3 3 4 4 4 4 4 4 4
7 5 3 3 4 8 11 14 15 16 17 17 17 17 18 18 17 17 16 17 17 16 14 13 12 10 10 7 5 4 4 2 1 1 2 3 5 5 5 4 4 3 3 4 5 5 5 5 5
6 4 3 2 5 8 12 14 15 16 18 19 19 17 17 17 16 15 15 15 15 16 15 13 11 10 9 7 6 5 3 3 2 1 1 2 4 4 5 5 5 4 4 5 6 6 6 7 6
5 4 3 1 4 8 12 13 14 15 17 18 19 19 18 15 14 14 14 14 14 14 14 12 11 8 8 7 7 6 3 3 2 2 2 2 3 4 6 6 6 6 6 6 6 7 7 7 7
8 6 4 3 4 7 10 12 12 13 15 17 18 18 20 18 15 14 14 14 13 13 13 11 10 7 7 7 7 6 5 3 2 2 3 3 3 5 6 7 7 7 7 7 7 7 7 7 8
10 9 8 7 7 9 11 11 11 11 14 16 17 17 18 19 16 14 14 14 13 13 12 11 9 7 6 6 6 6 6 5 4 3 4 4 4 5 6 7 7 8 8 8 8 8 8 8 9
12 12 11 11 10 11 11 11 10 11 12 14 16 17 18 18 16 15 14 14 12 12 11 10 9 8 6 5 6 6 6 5 5 4 4 4 4 5 6 7 8 8 9 9 10 9 9 9 10
14 14 12 12 12 12 12 12 11 12 11 13 16 17 18 18 16 15 13 12 12 11 10 10 10 8 6 6 6 6 5 5 5 5 5 5 5 6 7 8 9 9 10 11 11 10 11 11 11
15 15 14 12 11 11 11 12 11 11 12 13 15 16 17 17 16 15 13 11 11 11 10 10 9 9 7 6 6 6 5 5 5 5 5 6 6 7 8 9 10 11 11 12 12 12 12 12 13
17 16 15 13 11 9 9 11 11 10 11 13 14 16 16 15 15 15 13 12 12 11 10 9 9 8 8 6 6 6 6 5 5 6 6 7 7 7 8 9 10 11 12 13 13 13 14 14 14
16 17 15 14 12 10 10 11 11 10 10 12 13 14 15 15 14 14 13 12 12 11 11 9 8 8 7 6 6 6 6 6 6 7 7 7 7 8 8 9 9 10 11 12 13 14 15 15 16
16 17 16 15 14 13 11 11 10 12 11 12 12 13 15 15 14 13 13 12 11 11 11 10 9 8 7 6 6 6 6 7 7 7 7 7 8 8 8 8 9 10 10 12 14 15 15 16 17
16 16 18 17 16 15 14 13 11 10 12 13 13 13 15 15 14 14 13 13 12 11 10 10 9 8 7 7 6 6 7 8 8 8 8 8 8 8 8 9 9 10 12 12 13 14 13 14 14
17 16 18 19 18 17 17 16 13 12 13 12 12 12 15 15 14 14 14 13 12 11 10 10 9 9 8 7 7 7 8 8 9 9 9 8 8 8 8 8 9 10 11 11 12 12 12 12 13
19 17 18 20 20 19 20 19 16 15 14 13 13 13 14 13 13 13 13 12 12 11 10 9 9 9 9 9 8 8 9 9 10 10 9 9 9 8 8 8 9 10 11 12 12 12 12 13 14
Wind_Direction
74 67 60 57 52 50 52 52 49 48 44 40 37 37 39 42 46 49 50 57 69 75 77 75 73 74 70 65 51 31 17 9 347 316 305 277 262 241 223 214 205 196 184 170 152 143 147 139 132
74 68 61 57 51 50 51 50 46 43 42 42 39 37 38 39 42 49 53 57 69 75 75 77 77 76 74 67 50 30 12 355 329 304 289 278 267 254 247 238 225 215 217 212 185 164 155 146 136
75 66 59 54 51 49 48 46 44 40 39 41 41 39 37 39 42 46 51 55 62 67 69 72 74 73 72 64 53 35 10 348 329 304 289 273 268 269 255 258 253 239 243 235 194 172 166 151 137
74 65 58 51 48 48 46 44 38 37 37 38 40 40 39 39 40 41 46 49 51 55 56 60 70 77 72 62 48 29 6 354 336 316 296 282 277 275 270 271 264 250 248 238 202 180 165 149 144
72 64 55 50 46 43 41 40 36 33 34 36 38 39 41 42 40 39 40 42 42 41 39 42 50 56 57 43 32 1 351 342 322 312 295 284 277 281 278 283 272 250 238 219 199 185 171 153 144
70 62 53 48 45 43 40 37 33 32 31 35 38 38 40 43 42 40 39 41 41 38 35 35 39 36 28 11 336 323 339 335 320 305 290 284 281 272 269 274 266 250 225 203 184 180 171 162 156
68 62 54 46 42 40 37 33 32 30 30 34 36 35 37 44 42 39 39 40 38 36 33 32 32 27 26 10 335 325 325 312 296 291 287 284 274 267 258 251 254 240 217 200 183 176 172 168 168
72 61 51 41 36 34 33 31 30 28 27 30 33 32 33 39 41 40 36 33 30 30 28 27 29 30 25 358 321 318 309 295 286 271 269 271 265 262 256 247 245 216 198 185 180 179 172 167 169
69 56 45 36 32 33 32 28 28 26 25 26 28 27 29 35 38 38 36 32 29 28 26 24 24 30 24 350 321 296 298 287 275 259 259 256 250 258 261 249 230 201 192 183 172 165 166 167 169
72 54 41 35 31 32 31 26 26 25 24 24 23 23 26 30 34 36 35 33 29 28 25 23 23 22 13 349 319 303 297 286 259 242 246 247 241 242 247 234 213 204 196 182 174 163 166 171 174
80 60 39 29 25 24 27 24 25 21 22 22 23 24 27 29 31 32 32 32 30 26 25 22 23 25 7 343 320 305 303 290 247 230 229 233 234 224 220 217 205 199 191 183 183 180 183 183 181
101 79 48 27 21 18 18 17 19 20 20 22 24 24 23 24 27 27 28 30 29 31 30 28 23 22 13 4 356 347 309 291 224 221 219 220 224 217 204 210 200 194 187 189 190 198 193 193 205
123 103 70 43 23 15 12 12 12 16 17 19 22 21 21 21 20 22 23 26 28 28 30 29 24 22 17 21 24 50 62 101 152 181 201 219 214 202 193 194 198 198 196 201 203 207 211 214 226
129 120 93 56 27 14 7 6 9 11 14 16 19 19 18 19 18 19 20 20 23 23 25 25 25 21 16 21 30 45 72 108 128 194 218 220 207 193 190 189 187 198 205 211 214 209 221 234 230
129 115 94 60 25 6 1 360 1 6 11 13 14 15 17 17 16 16 17 17 17 17 19 19 21 17 14 25 32 38 63 95 105 177 210 215 210 198 193 190 188 198 207 213 214 221 242 247 245
130 116 95 61 21 355 353 353 351 1 7 10 12 11 14 16 14 14 13 14 13 12 11 12 13 13 18 23 28 30 40 44 68 221 218 220 218 209 202 191 191 201 213 218 224 234 243 248 255
123 107 100 44 15 350 341 339 341 349 359 3 4 6 8 12 12 8 8 10 10 9 8 8 9 12 22 28 25 18 16 16 29 246 231 232 226 219 211 205 199 201 212 224 233 241 249 254 254
121 99 77 12 344 336 329 330 341 343 347 354 355 357 1 7 8 4 3 4 6 7 6 5 5 5 14 20 18 13 17 19 5 336 282 250 227 223 212 215 220 229 237 244 247 251 256 256 254
153 136 106 38 325 317 317 324 329 333 340 348 353 356 0 4 5 4 360 358 0 2 0 360 0 7 12 16 10 9 16 13 355 321 282 258 234 228 222 225 232 241 249 254 253 254 258 258 258
187 184 185 213 277 295 303 310 317 327 340 345 350 354 2 1 2 3 360 358 358 358 358 358 354 358 0 6 5 4 8 4 349 315 284 263 237 231 231 236 242 249 254 254 251 251 256 257 259
201 207 210 226 254 273 283 299 309 323 337 341 344 349 352 352 357 358 357 359 359 358 358 358 0 356 349 354 359 350 351 354 342 317 285 261 245 241 240 243 244 248 253 253 251 254 255 256 259
211 220 225 234 245 258 277 292 303 315 328 332 338 345 348 350 349 351 353 352 356 360 0 2 4 358 350 347 347 338 334 333 329 318 298 275 264 255 250 249 251 256 255 254 257 259 262 262 266
218 223 229 235 246 253 266 280 294 308 317 329 337 343 347 348 346 346 349 351 355 358 1 3 3 1 357 347 341 333 322 321 322 316 302 283 270 267 264 261 256 255 255 256 257 262 265 266 268
223 227 230 237 246 254 267 279 294 302 315 329 337 341 347 349 348 345 350 353 356 357 356 357 359 359 355 353 350 341 329 322 319 321 308 289 279 273 266 263 258 257 257 258 260 263 267 268 268
229 230 232 236 243 254 272 281 288 298 312 327 332 338 344 347 349 349 353 357 357 354 352 352 352 352 351 349 350 348 340 331 323 318 312 299 290 283 274 269 266 261 262 262 261 263 267 268 269
233 235 236 239 242 255 269 280 288 297 309 321 329 337 346 348 347 350 352 352 354 354 353 352 352 352 353 350 349 348 345 340 334 326 320 310 297 291 279 273 269 269 268 267 263 263 268 269 269
233 236 238 242 242 249 261 277 293 305 305 313 326 336 345 348 349 350 352 351 349 349 352 352 351 352 352 352 350 349 345 343 341 336 330 322 307 298 291 283 274 272 275 277 275 270 270 273 273
233 236 238 242 244 250 257 270 289 301 305 309 318 329 338 342 345 347 348 349 348 347 348 350 352 353 351 352 348 346 343 341 340 337 334 330 321 308 297 287 283 281 282 285 280 278 276 277 277
227 236 241 243 245 249 254 260 275 288 301 306 312 320 331 336 340 342 344 344 347 348 349 350 353 355 356 353 349 350 346 341 337 333 330 331 327 317 302 295 290 290 292 287 285 281 278 278 280
226 233 241 243 245 249 254 258 263 275 289 297 309 316 322 330 334 336 338 342 346 349 349 351 354 355 353 350 349 348 343 339 336 332 330 331 329 325 314 309 300 297 297 293 287 286 282 280 281
Height
5919 5918 5919 5919 5917 5916 5914 5914 5913 5912 5911 5909 5908 5908 5907 5906 5906 5907 5904 5902 5902 5901 5901 5901 5901 5901 5902 5902 5902 5903 5903 5903 5904 5904 5904 5904 5904 5904 5904 5904 5904 5904 5904 5904 5904 5904 5904 5904 5904
5922 5921 5922 5920 5918 5917 5916 5916 5915 5914 5913 5912 5911 5910 5909 5907 5906 5905 5904 5903 5902 5902 5902 5902 5902 5902 5902 5903 5903 5904 5904 5904 5904 5904 5904 5905 5905 5905 5905 5904 5904 5904 5904 5905 5904 5904 5905 5905 5905
5924 5924 5924 5922 5920 5919 5919 5918 5917 5915 5914 5914 5914 5912 5911 5909 5907 5905 5905 5904 5903 5903 5903 5903 5903 5903 5903 5903 5904 5904 5904 5905 5905 5905 5905 5905 5905 5905 5905 5905 5905 5905 5905 5905 5905 5905 5905 5905 5905
5928 5927 5925 5924 5922 5922 5921 5920 5919 5918 5917 5916 5915 5914 5912 5910 5908 5906 5905 5904 5904 5904 5903 5903 5903 5904 5904 5904 5904 5904 5904 5905 5905 5905 5905 5905 5905 5905 5905 5905 5905 5905 5905 5905 5905 5905 5905 5905 5906
5931 5928 5927 5925 5925 5924 5923 5923 5922 5920 5919 5917 5916 5915 5913 5911 5908 5907 5906 5905 5904 5904 5904 5904 5904 5904 5904 5904 5904 5905 5905 5905 5905 5905 5905 5905 5905 5905 5905 5905 5905 5905 5905 5905 5905 5905 5906 5906 5906
5933 5930 5929 5928 5927 5927 5926 5925 5925 5923 5921 5919 5918 5917 5915 5913 5910 5908 5907 5906 5905 5905 5905 5904 5904 5904 5904 5904 5904 5905 5905 5905 5905 5905 5905 5905 5905 5905 5905 5905 5906 5905 5905 5905 5905 5906 5906 5906 5906
5935 5933 5931 5931 5930 5930 5930 5928 5927 5925 5923 5921 5919 5918 5916 5914 5912 5910 5908 5907 5906 5906 5905 5904 5904 5904 5904 5904 5904 5904 5904 5905 5905 5905 5905 5905 5905 5905 5905 5905 5905 5905 5905 5905 5905 5906 5906 5907 5907
5935 5935 5934 5933 5933 5933 5932 5931 5929 5927 5926 5923 5921 5919 5917 5916 5914 5912 5909 5908 5907 5906 5905 5904 5904 5904 5904 5904 5904 5904 5904 5904 5904 5904 5904 5905 5905 5905 5905 5905 5905 5905 5905 5905 5906 5906 5906 5907 5907
5936 5937 5936 5936 5936 5935 5934 5933 5931 5929 5927 5924 5922 5920 5919 5917 5915 5913 5911 5909 5908 5907 5905 5904 5904 5903 5903 5903 5903 5903 5903 5903 5903 5904 5904 5904 5904 5905 5905 5905 5905 5905 5905 5906 5906 5906 5907 5907 5907
5938 5938 5938 5938 5938 5937 5936 5935 5933 5931 5928 5926 5924 5921 5919 5917 5916 5914 5912 5910 5908 5907 5905 5904 5904 5903 5902 5902 5902 5902 5902 5902 5902 5903 5903 5904 5904 5904 5904 5905 5905 5905 5905 5906 5906 5907 5907 5907 5907
5939 5940 5940 5940 5939 5939 5938 5937 5935 5933 5931 5929 5926 5923 5921 5918 5916 5915 5913 5911 5909 5907 5906 5904 5903 5902 5902 5901 5901 5901 5901 5901 5901 5901 5902 5903 5903 5904 5904 5904 5905 5905 5906 5906 5906 5907 5907 5907 5907
5941 5941 5941 5941 5941 5940 5940 5938 5936 5935 5933 5931 5928 5925 5922 5920 5918 5916 5914 5912 5910 5908 5906 5905 5903 5902 5901 5901 5900 5900 5900 5900 5900 5901 5901 5902 5903 5904 5904 5904 5905 5905 5906 5906 5907 5907 5907 5907 5907
5941 5942 5942 5942 5942 5941 5940 5939 5939 5937 5935 5932 5929 5927 5925 5922 5919 5917 5914 5912 5911 5909 5907 5905 5904 5903 5902 5900 5900 5899 5899 5899 5900 5900 5901 5902 5902 5903 5903 5904 5904 5905 5905 5906 5906 5907 5907 5907 5907
5942 5942 5943 5943 5943 5942 5941 5940 5939 5938 5935 5933 5931 5928 5926 5923 5920 5918 5915 5913 5911 5909 5907 5905 5904 5902 5901 5900 5899 5899 5899 5899 5900 5900 5901 5901 5902 5903 5903 5904 5904 5904 5905 5905 5906 5906 5907 5907 5907
5943 5943 5944 5944 5943 5942 5942 5941 5939 5938 5936 5934 5932 5929 5927 5924 5921 5918 5916 5913 5911 5909 5907 5905 5904 5902 5900 5900 5899 5899 5899 5899 5900 5900 5901 5901 5902 5902 5903 5903 5904 5904 5905 5905 5906 5906 5906 5907 5907
5944 5944 5944 5944 5943 5943 5943 5942 5940 5938 5936 5934 5932 5930 5927 5925 5922 5919 5916 5914 5911 5909 5907 5906 5904 5902 5900 5900 5900 5899 5899 5899 5899 5899 5900 5900 5901 5902 5902 5903 5903 5904 5904 5905 5905 5906 5906 5906 5906
5944 5944 5944 5944 5943 5943 5942 5941 5940 5938 5936 5934 5932 5930 5927 5925 5922 5920 5917 5914 5912 5910 5908 5906 5904 5902 5901 5900 5900 5899 5898 5898 5898 5899 5899 5899 5899 5900 5901 5902 5902 5903 5903 5904 5905 5905 5905 5905 5905
5943 5943 5943 5943 5943 5943 5942 5941 5939 5937 5936 5935 5933 5930 5927 5924 5923 5920 5918 5915 5912 5910 5908 5906 5904 5902 5901 5901 5900 5899 5899 5898 5898 5898 5898 5898 5898 5899 5900 5901 5902 5902 5902 5903 5903 5904 5904 5904 5904
5942 5943 5943 5943 5942 5943 5942 5940 5939 5937 5936 5934 5932 5930 5927 5923 5922 5920 5918 5915 5913 5911 5909 5906 5904 5902 5901 5901 5900 5899 5899 5898 5898 5897 5897 5898 5898 5898 5899 5900 5900 5901 5901 5901 5902 5902 5902 5902 5903
5940 5942 5942 5942 5941 5941 5941 5939 5938 5937 5935 5934 5932 5930 5927 5925 5922 5920 5918 5915 5913 5910 5908 5906 5904 5902 5901 5901 5900 5899 5898 5898 5897 5897 5896 5896 5897 5897 5898 5898 5899 5899 5899 5900 5900 5900 5900 5901 5901
5939 5940 5940 5941 5940 5940 5939 5939 5937 5936 5935 5934 5932 5930 5927 5924 5922 5920 5917 5915 5912 5910 5908 5906 5904 5902 5901 5900 5899 5898 5898 5897 5897 5896 5896 5895 5895 5896 5896 5897 5897 5897 5898 5898 5898 5898 5898 5898 5898
5937 5937 5938 5938 5939 5938 5938 5937 5937 5935 5934 5933 5931 5929 5926 5924 5922 5919 5917 5914 5911 5909 5907 5906 5904 5902 5901 5899 5898 5897 5897 5896 5896 5895 5895 5894 5894 5894 5894 5895 5895 5895 5895 5895 5896 5896 5896 5896 5896
5934 5935 5935 5936 5936 5937 5937 5936 5936 5934 5933 5932 5930 5928 5926 5923 5921 5919 5916 5913 5911 5909 5907 5905 5903 5901 5900 5899 5898 5896 5896 5895 5895 5894 5893 5893 5893 5892 5892 5892 5892 5892 5893 5893 5893 5893 5893 5893 5893
5931 5932 5933 5934 5934 5935 5935 5934 5934 5932 5931 5930 5929 5927 5925 5922 5920 5917 5914 5912 5910 5908 5906 5904 5903 5901 5899 5898 5897 5895 5894 5894 5893 5892 5892 5891 5891 5890 5890 5890 5889 5889 5890 5890 5890 5890 5890 5890 5890
5928 5929 5931 5931 5932 5932 5932 5931 5931 5930 5929 5928 5927 5926 5924 5921 5919 5916 5914 5911 5909 5907 5905 5903 5902 5900 5898 5897 5896 5894 5893 5892 5892 5891 5890 5889 5889 5888 5888 5887 5886 5886 5886 5887 5886 5887 5887 5886 5886
5924 5926 5928 5929 5929 5929 5928 5928 5928 5927 5926 5925 5925 5925 5923 5920 5918 5915 5913 5911 5909 5907 5905 5903 5901 5899 5897 5896 5895 5893 5892 5891 5890 5889 5888 5887 5887 5886 5885 5884 5884 5883 5883 5883 5883 5883 5883 5883 5882
5920 5922 5924 5925 5925 5925 5925 5925 5925 5924 5923 5923 5923 5923 5921 5919 5917 5915 5912 5910 5908 5906 5904 5902 5900 5898 5897 5895 5894 5892 5891 5890 5889 5888 5887 5885 5884 5883 5882 5882 5881 5881 5880 5880 5879 5879 5879 5879 5878
5916 5918 5919 5920 5921 5921 5922 5922 5923 5922 5921 5921 5921 5920 5920 5918 5916 5913 5911 5909 5907 5905 5903 5901 5899 5897 5895 5894 5893 5891 5890 5889 5887 5886 5885 5884 5882 5881 5880 5880 5879 5878 5877 5876 5876 5875 5875 5874 5873
5912 5914 5915 5916 5917 5918 5918 5921 5920 5920 5919 5919 5919 5918 5917 5916 5914 5912 5910 5908 5905 5903 5901 5900 5898 5896 5894 5893 5891 5890 5889 5887 5886 5884 5883 5881 5880 5879 5878 5877 5876 5875 5874 5873 5872 5872 5871 5870 5869
5907 5909 5911 5913 5914 5914 5914 5918 5917 5917 5917 5917 5916 5916 5915 5914 5912 5910 5909 5907 5904 5902 5900 5898 5897 5895 5893 5892 5890 5888 5887 5886 5884 5882 5881 5879 5878 5877 5876 5874 5873 5872 5871 5870 5869 5868 5867 5866 5865